Regional Weather Roundup
Issued by NWS

Home | Current Version | Previous Version | Graphics & Text | Print | Product List | Glossary On
Versions: 1 2 3 4 5 6 7 8 9 10 11 12 13 14 15 16 17 18 19 20 21 22 23 24 25 26 27 28 29 30 31 32 33 34 35 36 37 38 39 40 41 42 43 44 45 46 47 48 49 50
000
ASUS43 KFSD 230602
RWRSD

WEATHER ROUNDUP FOR SOUTH DAKOTA
NATIONAL WEATHER SERVICE SIOUX FALLS SD
100 AM CDT SAT MAY 23 2015

NOTE: "FAIR" INDICATES FEW OR NO CLOUDS BELOW 12,000 FEET WITH NO
SIGNIFICANT WEATHER AND/OR OBSTRUCTIONS TO VISIBILITY.


SDZ001>005-009-010-012>017-230700-
NORTHWEST AND NORTH CENTRAL SOUTH DAKOTA

CITY           SKY/WX    TMP DP  RH WIND       PRES   REMARKS
BUFFALO          N/A     46  39  76 SE12      30.01S
FAITH            N/A     47  40  76 SE12      30.09F
MOBRIDGE       CLEAR     51  46  83 S8        30.12S
$$

SDZ012>016-024>037-041>051-057-063-072>074-230700-
SOUTHWEST AND SOUTH CENTRAL SOUTH DAKOTA

CITY           SKY/WX    TMP DP  RH WIND       PRES   REMARKS
RAPID CTY ARPT CLOUDY    48  43  82 SE9       30.08S
PIERRE         PTCLDY    46  41  82 SE10      30.13F
CUSTER         FOG       40  39  97 VRB6      30.07F VSB 1/4
ELLSWORTH AFB  CLOUDY    48  44  85 S14       30.06S
PHILIP         CLOUDY    49  43  80 SE6       30.11S
PINE RIDGE     CLOUDY    48  42  80 SE6       30.09F
WINNER         CLOUDY    51  44  77 SE7       30.15F
$$

SDZ004>011-016>023-039-040-230700-
NORTHEAST SOUTH DAKOTA

CITY           SKY/WX    TMP DP  RH WIND       PRES   REMARKS
ABERDEEN       MOCLDY    50  43  77 S7        30.18S
WATERTOWN      CLOUDY    53  44  71 SW3       30.20S
BROOKINGS      PTCLDY    54  43  66 CALM      30.21S
$$

SDZ017-020-022-023-036>040-048>070-230700-
SOUTHEAST SOUTH DAKOTA

CITY           SKY/WX    TMP DP  RH WIND       PRES   REMARKS
SIOUX FALLS    CLOUDY    55  45  68 CALM      30.20R
HURON          PTCLDY    49  43  80 SE3       30.19R
CHAMBERLAIN    CLOUDY    50  44  80 SE5       30.17S
MITCHELL       CLOUDY    55  46  71 CALM      30.20S
YANKTON        CLOUDY    54  46  76 SE6       30.19R
$$

ABBREVIATIONS USED IN REMARKS
   TC - TEMPERATURE IN CELSIUS
  WCI - WIND CHILL INDEX
   HX - HEAT INDEX
  VSB - VISIBILITY



USA.gov is the U.S. government's official web portal to all federal, state and local government web resources and services.